DLH5HF EDDM-EDDC

Flight info

Callsign DLH5HF
Flight time 0h 33m
Altitude 26000
Route AKIN1N AKINI Y104 MAMOR L132 AGNAV SUPIL KILNU L132 ABKIS Q240 DRN
Aircraft A319/M-SDE3FGHIRWY/LB1

Departure

Time 2026-05-06 20:01
Airport Munich Airport (EDDM)

Arrival

Time 2026-05-06 20:35
Airport Dresden Airport (EDDC)
Time Latitude Longitude Altitude Speed Heading
2026-05-06 19:24 48.35511 11.80020 1459 ft 0 kts 264°
2026-05-06 19:46 48.35511 11.80021 1440 ft 2 kts 264°
2026-05-06 19:46 48.35512 11.80051 1465 ft 3 kts 274°
2026-05-06 19:46 48.35509 11.80081 1460 ft 3 kts 302°
2026-05-06 19:47 48.35496 11.80098 1458 ft 2 kts 352°
2026-05-06 19:47 48.35494 11.80098 1459 ft 0 kts 353°
2026-05-06 19:50 48.35503 11.80097 1465 ft 4 kts 353°
2026-05-06 19:50 48.35533 11.80091 1460 ft 5 kts 354°
2026-05-06 19:50 48.35577 11.80084 1462 ft 7 kts 353°
2026-05-06 19:51 48.35626 11.80076 1463 ft 8 kts 353°
2026-05-06 19:51 48.35684 11.80078 1467 ft 9 kts
2026-05-06 19:51 48.35746 11.80070 1466 ft 9 kts 354°
2026-05-06 19:51 48.35809 11.80055 1467 ft 9 kts 336°
2026-05-06 19:52 48.35845 11.79974 1465 ft 10 kts 288°
2026-05-06 19:52 48.35842 11.79873 1467 ft 10 kts 264°
2026-05-06 19:52 48.35834 11.79766 1467 ft 11 kts 263°
2026-05-06 19:52 48.35826 11.79654 1467 ft 11 kts 263°
2026-05-06 19:53 48.35822 11.79548 1467 ft 9 kts 286°
2026-05-06 19:53 48.35879 11.79518 1467 ft 9 kts 354°
2026-05-06 19:53 48.35944 11.79508 1467 ft 10 kts 353°
2026-05-06 19:53 48.35999 11.79498 1467 ft 1 kts 353°
2026-05-06 19:54 48.36006 11.79497 1462 ft 1 kts 354°
2026-05-06 19:54 48.36023 11.79494 1460 ft 4 kts 353°
2026-05-06 19:54 48.36065 11.79487 1467 ft 8 kts 353°
2026-05-06 19:54 48.36124 11.79477 1461 ft 10 kts 353°
2026-05-06 19:55 48.36193 11.79476 1468 ft 10 kts 23°
2026-05-06 19:55 48.36221 11.79575 1468 ft 12 kts 83°
2026-05-06 19:55 48.36231 11.79705 1468 ft 13 kts 83°
2026-05-06 19:55 48.36242 11.79842 1468 ft 13 kts 83°
2026-05-06 19:56 48.36254 11.79981 1466 ft 14 kts 83°
2026-05-06 19:56 48.36264 11.80126 1468 ft 14 kts 84°
2026-05-06 19:56 48.36276 11.80286 1468 ft 16 kts 83°
2026-05-06 19:56 48.36290 11.80451 1465 ft 16 kts 83°
2026-05-06 19:57 48.36302 11.80621 1467 ft 17 kts 83°
2026-05-06 19:57 48.36315 11.80793 1462 ft 17 kts 83°
2026-05-06 19:57 48.36329 11.80968 1467 ft 17 kts 83°
2026-05-06 19:57 48.36342 11.81146 1467 ft 17 kts 83°
2026-05-06 19:58 48.36356 11.81328 1462 ft 18 kts 83°
2026-05-06 19:58 48.36370 11.81511 1466 ft 18 kts 83°
2026-05-06 19:58 48.36384 11.81696 1466 ft 18 kts 83°
2026-05-06 19:58 48.36397 11.81875 1466 ft 14 kts 89°
2026-05-06 19:59 48.36395 11.81994 1462 ft 10 kts 62°
2026-05-06 19:59 48.36459 11.82008 1466 ft 10 kts 353°
2026-05-06 19:59 48.36531 11.81996 1461 ft 11 kts 353°
2026-05-06 19:59 48.36605 11.81983 1462 ft 11 kts 353°
2026-05-06 20:00 48.36664 11.81931 1458 ft 10 kts 295°
2026-05-06 20:00 48.36667 11.81826 1459 ft 11 kts 262°
2026-05-06 20:00 48.36650 11.81600 1464 ft 49 kts 263°
2026-05-06 20:00 48.36583 11.80722 1467 ft 117 kts 263°
2026-05-06 20:01 48.36468 11.79245 1623 ft 153 kts 262°
2026-05-06 20:01 48.36344 11.77673 2399 ft 150 kts 262°
2026-05-06 20:01 48.36222 11.76120 3167 ft 149 kts 264°
2026-05-06 20:01 48.36104 11.74584 3882 ft 147 kts 265°
2026-05-06 20:02 48.36038 11.73054 4574 ft 147 kts 278°
2026-05-06 20:02 48.36478 11.71593 4950 ft 171 kts 310°
2026-05-06 20:02 48.37692 11.70900 5188 ft 214 kts 354°
2026-05-06 20:02 48.39221 11.71732 5475 ft 256 kts 26°
2026-05-06 20:03 48.40736 11.73402 5990 ft 282 kts 34°
2026-05-06 20:03 48.42273 11.75328 6778 ft 292 kts 36°
2026-05-06 20:03 48.43844 11.77319 7647 ft 298 kts 36°
2026-05-06 20:03 48.45466 11.79311 8528 ft 304 kts 36°
2026-05-06 20:04 48.47146 11.81291 9426 ft 309 kts 36°
2026-05-06 20:04 48.48885 11.83276 10158 ft 321 kts 35°
2026-05-06 20:04 48.50743 11.85355 10491 ft 345 kts 34°
2026-05-06 20:04 48.52733 11.87560 10916 ft 362 kts 34°
2026-05-06 20:05 48.54782 11.89830 11651 ft 369 kts 35°
2026-05-06 20:05 48.56864 11.92141 12449 ft 373 kts 35°
2026-05-06 20:05 48.58967 11.94484 13253 ft 378 kts 36°
2026-05-06 20:05 48.61089 11.96855 14009 ft 381 kts 36°
2026-05-06 20:06 48.63231 11.99254 14726 ft 385 kts 36°
2026-05-06 20:06 48.65390 12.01673 15453 ft 388 kts 37°
2026-05-06 20:06 48.67565 12.04112 16159 ft 391 kts 36°
2026-05-06 20:06 48.69747 12.06559 16948 ft 391 kts 37°
2026-05-06 20:07 48.71938 12.09018 17662 ft 393 kts 37°
2026-05-06 20:07 48.74149 12.11481 18337 ft 396 kts 35°
2026-05-06 20:07 48.76546 12.13572 18928 ft 400 kts 25°
2026-05-06 20:07 48.79079 12.15372 19530 ft 403 kts 25°
2026-05-06 20:08 48.81622 12.17188 20135 ft 406 kts 26°
2026-05-06 20:08 48.84187 12.19032 20702 ft 409 kts 26°
2026-05-06 20:08 48.86768 12.20894 21307 ft 412 kts 26°
2026-05-06 20:08 48.89366 12.22778 21891 ft 415 kts 26°
2026-05-06 20:09 48.91988 12.24654 22476 ft 418 kts 25°
2026-05-06 20:09 48.94634 12.26516 23021 ft 421 kts 25°
2026-05-06 20:09 48.97305 12.28383 23515 ft 424 kts 25°
2026-05-06 20:09 49.00000 12.30269 23965 ft 427 kts 25°
2026-05-06 20:10 49.02709 12.32170 24387 ft 431 kts 25°
2026-05-06 20:10 49.05403 12.34068 24797 ft 434 kts 25°
2026-05-06 20:10 49.08188 12.36040 25212 ft 437 kts 25°
2026-05-06 20:10 49.10923 12.37979 25472 ft 442 kts 25°
2026-05-06 20:11 49.13722 12.39967 25593 ft 445 kts 25°
2026-05-06 20:11 49.16530 12.41961 25753 ft 446 kts 25°
2026-05-06 20:11 49.19334 12.43959 25815 ft 441 kts 25°
2026-05-06 20:11 49.22102 12.45932 25812 ft 438 kts 25°
2026-05-06 20:12 49.24859 12.47892 25819 ft 436 kts 25°
2026-05-06 20:12 49.27613 12.49856 25816 ft 436 kts 25°
2026-05-06 20:12 49.30360 12.51820 25815 ft 437 kts 25°
2026-05-06 20:12 49.33150 12.53685 25803 ft 438 kts 19°
2026-05-06 20:13 49.36080 12.54937 25813 ft 437 kts 11°
2026-05-06 20:13 49.39060 12.55866 25802 ft 437 kts 10°
2026-05-06 20:13 49.42043 12.56794 25802 ft 438 kts 10°
2026-05-06 20:13 49.45026 12.57727 25801 ft 437 kts 10°
2026-05-06 20:14 49.48010 12.58665 25800 ft 437 kts 11°
2026-05-06 20:14 49.50991 12.59605 25806 ft 438 kts 10°
2026-05-06 20:14 49.53977 12.60551 25798 ft 438 kts 10°
2026-05-06 20:14 49.56965 12.61495 25785 ft 439 kts
2026-05-06 20:15 49.59962 12.62359 25786 ft 439 kts
2026-05-06 20:15 49.62977 12.63120 25787 ft 439 kts
2026-05-06 20:15 49.65995 12.63819 25781 ft 439 kts
2026-05-06 20:15 49.69019 12.64497 25783 ft 439 kts
2026-05-06 20:16 49.72039 12.65177 25784 ft 439 kts
2026-05-06 20:16 49.75060 12.65879 25793 ft 439 kts
2026-05-06 20:16 49.78080 12.66606 25792 ft 439 kts
2026-05-06 20:16 49.81098 12.67354 25790 ft 439 kts
2026-05-06 20:17 49.84113 12.68109 25786 ft 439 kts
2026-05-06 20:17 49.87132 12.68864 25784 ft 439 kts
2026-05-06 20:17 49.90151 12.69614 25564 ft 439 kts
2026-05-06 20:17 49.93160 12.70358 25339 ft 437 kts
2026-05-06 20:18 49.96152 12.71096 25097 ft 433 kts
2026-05-06 20:18 49.99070 12.71812 24667 ft 429 kts
2026-05-06 20:18 50.02047 12.72543 24106 ft 426 kts
2026-05-06 20:18 50.04922 12.73250 23598 ft 423 kts
2026-05-06 20:19 50.07858 12.73977 23029 ft 420 kts
2026-05-06 20:19 50.10688 12.74683 22543 ft 415 kts
2026-05-06 20:19 50.13524 12.75392 22053 ft 411 kts
2026-05-06 20:19 50.16342 12.76098 21569 ft 408 kts
2026-05-06 20:20 50.19137 12.76797 21082 ft 405 kts
2026-05-06 20:20 50.21912 12.77489 20587 ft 403 kts
2026-05-06 20:20 50.24670 12.78180 20091 ft 400 kts
2026-05-06 20:20 50.27343 12.79240 19797 ft 394 kts 21°
2026-05-06 20:21 50.28983 12.80560 19545 ft 391 kts 31°
2026-05-06 20:21 50.31247 12.82883 19083 ft 387 kts 33°
2026-05-06 20:21 50.33475 12.85215 18562 ft 384 kts 33°
2026-05-06 20:21 50.35679 12.87544 18041 ft 380 kts 33°
2026-05-06 20:22 50.37858 12.89851 17382 ft 376 kts 33°
2026-05-06 20:22 50.39999 12.92114 16740 ft 377 kts 33°
2026-05-06 20:22 50.42171 12.94409 16242 ft 375 kts 33°
2026-05-06 20:22 50.44332 12.96689 15759 ft 373 kts 33°
2026-05-06 20:23 50.46479 12.98953 15272 ft 371 kts 33°
2026-05-06 20:23 50.48618 13.01215 14789 ft 370 kts 33°
2026-05-06 20:23 50.50749 13.03474 14311 ft 369 kts 33°
2026-05-06 20:23 50.52874 13.05729 13824 ft 368 kts 33°
2026-05-06 20:24 50.54993 13.07984 13300 ft 368 kts 34°
2026-05-06 20:24 50.57103 13.10229 12806 ft 365 kts 34°
2026-05-06 20:24 50.59202 13.12465 12300 ft 363 kts 33°
2026-05-06 20:24 50.61284 13.14685 11777 ft 361 kts 33°
2026-05-06 20:25 50.63358 13.16898 11286 ft 358 kts 33°
2026-05-06 20:25 50.65414 13.19092 10781 ft 356 kts 33°
2026-05-06 20:25 50.67456 13.21271 10279 ft 354 kts 33°
2026-05-06 20:25 50.69466 13.23417 10079 ft 342 kts 33°
2026-05-06 20:26 50.71401 13.25488 9942 ft 330 kts 33°
2026-05-06 20:26 50.73261 13.27484 9822 ft 318 kts 33°
2026-05-06 20:26 50.75060 13.29418 9692 ft 307 kts 33°
2026-05-06 20:26 50.76811 13.31304 9319 ft 303 kts 33°
2026-05-06 20:27 50.78549 13.33174 8824 ft 301 kts 33°
2026-05-06 20:27 50.80271 13.35026 8343 ft 298 kts 33°
2026-05-06 20:27 50.81975 13.36858 7960 ft 294 kts 33°
2026-05-06 20:27 50.83631 13.38643 7793 ft 280 kts 33°
2026-05-06 20:28 50.85197 13.40332 7668 ft 265 kts 33°
2026-05-06 20:28 50.86692 13.41946 7401 ft 257 kts 33°
2026-05-06 20:28 50.88156 13.43529 7012 ft 254 kts 34°
2026-05-06 20:28 50.89602 13.45102 6619 ft 251 kts 34°
2026-05-06 20:29 50.91084 13.46533 6253 ft 248 kts 31°
2026-05-06 20:29 50.92459 13.48133 5945 ft 244 kts 39°
2026-05-06 20:29 50.93751 13.49859 5594 ft 241 kts 40°
2026-05-06 20:29 50.95005 13.51584 5264 ft 237 kts 40°
2026-05-06 20:30 50.96247 13.53278 4960 ft 234 kts 39°
2026-05-06 20:30 50.98700 13.56622 4358 ft 232 kts 40°
2026-05-06 20:30 50.99921 13.58285 4042 ft 230 kts 40°
2026-05-06 20:31 51.01117 13.59916 3721 ft 221 kts 40°
2026-05-06 20:31 51.02256 13.61478 3418 ft 212 kts 40°
2026-05-06 20:31 51.03347 13.62975 3153 ft 202 kts 40°
2026-05-06 20:31 51.04387 13.64391 2929 ft 191 kts 40°
2026-05-06 20:32 51.05370 13.65726 2644 ft 182 kts 42°
2026-05-06 20:32 51.06301 13.66998 2418 ft 170 kts 41°
2026-05-06 20:32 51.07174 13.68195 2160 ft 162 kts 43°
2026-05-06 20:32 51.07998 13.69326 1951 ft 151 kts 43°
2026-05-06 20:33 51.08770 13.70383 1760 ft 142 kts 43°
2026-05-06 20:33 51.09497 13.71383 1585 ft 137 kts 43°
2026-05-06 20:33 51.10213 13.72363 1409 ft 135 kts 41°
2026-05-06 20:33 51.10912 13.73325 1238 ft 134 kts 41°
2026-05-06 20:34 51.11627 13.74302 1016 ft 134 kts 40°
2026-05-06 20:34 51.12314 13.75252 855 ft 132 kts 41°
2026-05-06 20:34 51.12992 13.76192 755 ft 120 kts 40°
2026-05-06 20:34 51.13510 13.76904 738 ft 76 kts 41°
2026-05-06 20:35 51.13776 13.77270 726 ft 29 kts 41°
2026-05-06 20:35 51.13883 13.77417 722 ft 9 kts 40°
2026-05-06 20:35 51.13898 13.77513 721 ft 11 kts 121°
2026-05-06 20:35 51.13842 13.77619 717 ft 15 kts 131°
2026-05-06 20:36 51.13789 13.77717 712 ft 8 kts 130°
2026-05-06 20:36 51.13750 13.77712 713 ft 6 kts 220°
2026-05-06 20:36 51.13697 13.77640 717 ft 16 kts 220°
2026-05-06 20:36 51.13597 13.77500 723 ft 20 kts 220°
2026-05-06 20:37 51.13498 13.77364 729 ft 17 kts 221°
2026-05-06 20:37 51.13414 13.77249 733 ft 16 kts 220°
2026-05-06 20:37 51.13329 13.77133 739 ft 17 kts 221°
2026-05-06 20:37 51.13241 13.77009 745 ft 17 kts 221°
2026-05-06 20:38 51.13148 13.76882 746 ft 18 kts 221°
2026-05-06 20:38 51.13058 13.76759 749 ft 16 kts 221°
2026-05-06 20:38 51.12981 13.76652 751 ft 14 kts 220°
2026-05-06 20:38 51.12907 13.76552 752 ft 14 kts 221°
2026-05-06 20:39 51.12838 13.76457 751 ft 11 kts 217°
2026-05-06 20:39 51.12777 13.76476 752 ft 8 kts 157°
2026-05-06 20:39 51.12736 13.76439 754 ft 6 kts 219°
2026-05-06 20:39 51.12704 13.76395 755 ft 6 kts 221°
2026-05-06 20:40 51.12672 13.76353 753 ft 5 kts 212°
2026-05-06 20:40 51.12646 13.76364 754 ft 4 kts 135°
2026-05-06 20:40 51.12632 13.76390 752 ft 1 kts 131°
2026-05-06 20:40 51.12631 13.76391 752 ft 0 kts 131°